Simultaneous Nadir Overpasses (SNOs) Predictions

Prediction of SNOs near US between AQUA and NPP Satellite Orbit:

Table of predicted SNOs near US for the next 10.0 days since TLE Epoch: 6/11/2022
Index Date (AQUA) Time (AQUA) AQUA Lat,Lon Date (NPP) Time (NPP) NPP Lat,Lon Distance(km) Time Diff (sec)
1 06/15/2022 07:25:12 49.93, -76.78 06/15/2022 07:26:16 50.47, -79.58 207.80 64
2 06/17/2022 18:22:55 49.98, -80.95 06/17/2022 18:16:37 49.62, -83.18 164.89 378
3 06/17/2022 20:01:47 49.96,-105.66 06/17/2022 19:58:04 49.45,-108.48 210.54 223
4 06/20/2022 09:28:50 24.26,-113.81 06/20/2022 09:21:40 24.50,-115.10 133.58 430
